Overview Statistics Trail Chart Weather Telemetry Raw packets
 

This is the latest recevied weather packets stored in our database for station/object XE2RCS-1. If no packets are shown the sender has not sent any weather packets the latest 10 day(s).

<< 30 31 32 33 34 35 36 >>
Time Temp. Humidity Pressure Rain* Wind** Luminosity Snow
1788217422 28.33° C 37% 1012 hPa 0 mm - - -
1788216821 28.33° C 37% 1012 hPa 0 mm - - -
1788216221 28.89° C 37% 1012 hPa 0 mm - - -
1788215620 28.89° C 36% 1012 hPa 0 mm - - -
1788215020 28.89° C 35% 1017 hPa 0 mm - - -
1788214419 28.89° C 36% 1017 hPa 0 mm - - -
1788213818 28.89° C 37% 1015 hPa 0 mm - - -
1788213221 28.89° C 35% 1015 hPa 0 mm - - -
1788212617 28.89° C 35% 1014 hPa 0 mm - - -
1788212017 28.89° C 34% 1014 hPa 0 mm - - -
1788211415 28.89° C 32% 1013 hPa 0 mm - - -
1788210815 28.89° C 30% 1013 hPa 0 mm - - -
1788210214 28.89° C 28% 1013 hPa 0 mm - - -
1788209614 29.44° C 30% 1013 hPa 0 mm - - -
1788209013 30° C 27% 1013 hPa 0 mm - - -
1788208412 30° C 23% 1013 hPa 0 mm - - -
1788207811 29.44° C 24% 1014 hPa 0 mm - - -
1788207211 28.89° C 25% 1014 hPa 0 mm - - -
1788206610 28.89° C 25% 1014 hPa 0 mm - - -
1788206009 28.89° C 25% 1014 hPa 0 mm - - -
1788205409 28.89° C 25% 1014 hPa 0 mm - - -
1788204808 29.44° C 26% 1014 hPa 0 mm - - -
1788204207 29.44° C 26% 1015 hPa 0 mm - - -
1788203607 29.44° C 26% 1015 hPa 0 mm - - -
1788203006 29.44° C 27% 1015 hPa 0 mm - - -

* Rain latest hour (hover to see other rain measurements)
** Current wind speed in m/s (hover to see current wind gust speed)